Home   Weather   Portland   Past weeks
Flag for USA

Past Weather in Portland, Maine, USA — Yesterday and Last 2 Weeks

Now
45 °F

Light rain. Fog.


Feels Like: 39 °F
Forecast: 47 / 39 °F
Wind: 12 mph from South

Location: Portland - Portland International Jetport

Current Time: Jan 24, 2019 at 7:57:27 am

Latest Report: Jan 24, 2019 at 7:12 am


Visibility: 1 mi

Pressure: 29.70 "Hg

Humidity: 100%

Dew Point: 45 °F

Location of PortlandLocation

Past Weather in Portland — Graph

°F

Portland Temperature Yesterday

Maximum temperature yesterday: 41 °F (at 11:51 pm)
Minimum temperature yesterday: 11 °F (at 4:51 am)
Average temperature yesterday: 29 °F

High & Low Weather Summary for the Past Weeks

 TemperatureHumidityPressure
High41 °F (Jan 23, 11:51 pm)100% (Jan 9, 5:51 am)30.54 "Hg (Jan 9, 5:51 am)
Low2 °F (Jan 21, 4:51 pm)21% (Jan 22, 12:51 pm)29.14 "Hg (Jan 9, 12:51 pm)
Average21 °F66%30.02 "Hg
* Reported Jan 9 5:51 am — Jan 24 5:51 am, Portland. Weather by CustomWeather, © 2019

Note: Actual official high and low records may vary slightly from our data, if they occured in-between our weather recording intervals... More about our weather records

Advertising

Portland Weather History for the Previous 24 Hours

Scroll right to see more
 ConditionsComfort  
Time TempWeatherWind HumidityBarometerVisibility
5:51 am
Thu, Jan 24
37 °FLight rain. Fog.6 mph100%29.75 "Hg1 mi
4:51 am38 °FLight rain. Fog.3 mph100%29.78 "Hg1 mi
4:31 am37 °FLight rain. Fog.N/A100%29.78 "Hg1 mi
3:51 am38 °FLight rain. Fog.No wind100%29.80 "Hg1 mi
3:24 am38 °FLight rain. Fog.No wind100%29.81 "Hg1 mi
3:21 am38 °FLight rain. Fog.3 mph100%29.81 "Hg2 mi
2:51 am39 °FLight rain. Fog.8 mph96%29.83 "Hg5 mi
2:11 am39 °FLight rain. Fog.8 mph96%29.86 "Hg5 mi
1:51 am39 °FLight rain. Mostly cloudy.7 mph93%29.86 "Hg7 mi
1:37 am39 °FLight rain. Fog.10 mph93%29.87 "Hg5 mi
1:06 am41 °FLight rain. Mostly cloudy.8 mph76%29.88 "Hg6 mi
12:51 am41 °FMostly cloudy.7 mph74%29.88 "Hg10 mi
11:51 pm
Wed, Jan 23
41 °FOvercast.12 mph67%29.90 "Hg10 mi
10:51 pm40 °FMostly cloudy.12 mph70%29.90 "Hg10 mi
9:51 pm40 °FOvercast.10 mph68%29.92 "Hg10 mi
8:51 pm40 °FOvercast.13 mph65%29.94 "Hg10 mi
7:51 pm39 °FOvercast.12 mph70%29.97 "Hg10 mi
6:51 pm34 °FMostly cloudy.No wind79%29.99 "Hg10 mi
6:27 pm34 °FOvercast.No wind79%30.00 "Hg10 mi
6:12 pm35 °FMostly cloudy.No wind70%30.02 "Hg10 mi
4:51 pm35 °FLight rain. Overcast.No wind61%30.05 "Hg10 mi
3:51 pm36 °FOvercast.7 mph54%30.07 "Hg10 mi
2:51 pm36 °FMostly cloudy.14 mph50%30.08 "Hg10 mi
1:51 pm35 °FMore clouds than sun.12 mph48%30.11 "Hg10 mi
12:51 pm34 °FBroken clouds.15 mph46%30.14 "Hg10 mi
11:51 am32 °FMostly cloudy.14 mph50%30.19 "Hg10 mi
10:51 am31 °FMostly cloudy.15 mph47%30.23 "Hg10 mi
9:51 am30 °FMostly cloudy.13 mph51%30.28 "Hg10 mi
8:51 am28 °FPartly sunny.13 mph58%30.31 "Hg10 mi
7:51 am26 °FOvercast.13 mph50%30.32 "Hg10 mi
Weather by CustomWeather, © 2019

See weather overview